Location: Newark
(42.8481°N, 0.4872°E)
Time: 16:32:15
(UTC+00:00)

A-11 Canister half - Pass Details

Date: 04 November 2020
Orbit: 1525 x 1683 km, 47.3° (Epoch: 22 November)

Event Time Altitude Azimuth Distance (km) Brightness Sun altitude
Rises 15:51:00 0° 280° (W) 4,776 12.4 8.3°
Reaches altitude 10° 15:54:10 10° 283° (WNW) 3,771 11.9 7.8°
Maximum altitude 16:03:40 69° 7° (N) 1,630 9.2 6.3°
Drops below altitude 10° 16:12:57 10° 91° (E) 3,692 10.5 4.8°
Sets 16:16:01 0° 94° (E) 4,672 11.0 4.3°
